Location: ??????
(55.7522°N, 37.6156°E)
Time: 18:06:37
(UTC+00:00)

Cosmos 1703 - Pass Details

Date: 14 June 2025
Orbit: 442 x 453 km, 82.5° (Epoch: 12 July)

Event Time Altitude Azimuth Distance (km) Brightness Sun altitude
Exits shadow 21:01:13 10° 213° (SSW) 1,597 5.2 -10.7°
Maximum altitude 21:04:34 45° 287° (WNW) 638 3.8 -10.8°
Drops below altitude 10° 21:07:59 10° 2° (N) 1,614 7.3 -10.8°
Sets 21:10:08 0° 9° (N) 2,493 8.5 -10.8°
